METEOR 2-11 DEB, 60005

Orbit data source: Space-Track

METEOR 2-11 DEB, 60005 is space debris in LEO originally from a launch on Thu, 05 Jul 1984 UTC launched from the Plesetsk Missile And Space Complex (PKMTR). Debris objects in space refer to the collection of defunct objects orbiting the Earth. Examples of debris include non-operational satellites, rocket bodies, and fragments generated from explosions, collisions, or faulty payload assembly.

Loading next visibility...
METEOR 2-11 DEB details
Identifier
60005, 1984-072AA
Orbit
LEO
Last TLE update2 weeks ago
Origin
Flag of CISVVKO (CIS)
ManufacturerUnknown
MissionSpacecraft
Bus & MotorUnknown
MassUnknown
Launch date (UTC)
1984-07-05 (40 years ago)
Launch vehicleUnknown
Launch site
Plesetsk Missile And Space Complex (PKMTR)
Object type
Payload
Rocket body
Debris
Shape & HBRUnknown
Radar Cross SectionSmall (<0.1 m²)

Expand to show TLE details & history

TLE from 2 weeks ago
0 METEOR 2-11 DEB
1 60005U 84072AA  24345.59054204  .00006162  00000-0  43638-2 0  9990
2 60005  82.5199  94.1626 0024064 115.4913 244.8747 13.97438368359493
Epoch: 2024-12-10T14:10Z
Definitive object data (Epoch: 2024-12-10T14:10:22.832Z)
Latitude-0.00005°
Longitude161.77007°
Altitude913.074 km
Speed7.392 km/s
True Right ascension06h 16m 39s
True Declination0° 00' 00"
Sunlit
Object was in full shadow at TLE epoch
Visualization TLE readout
Latitude-81.70345°
Longitude32.19669°
Altitude947.021 km
Speed7.369 km/s
Apparent Right ascension04h 37m 32s
Apparent Declination-68° 11' 48"
Sunlit
Object is in daylight
Visualization observer readout
Local Sidereal Time17:25:51
Azimuth170.787° S
Elevation-60.966°
Doppler factor1
Orbital elements
Apogee altitude917.327 km
Perigee altitude882.3 km
Semi-major axis7,277.951 km
Eccentricity0.0024064
Inclination82.5199°
RAAN94.1626°
Arg. of periapsis115.4913°
True anomaly244.62536°
Mean anomaly244.8747°
Eccentric anomaly244.75°
Mean motion3.49566 °/min
BSTAR0.0043638
Orbital period102.98 mins
Loading maneuver chart data...
Loading historical data...
Loading historical data...
Loading historical data...
Loading historical data...
Loading historical data...
Loading historical data...
Loading historical data...

METEOR 2-11 DEB Visibility forecast

Observer location: undefined°, undefined

Span
Click to sort rows by Start time (UTC) header in descending order
Start Az.
Max El. time (UTC)
Max El. Az.
Max El.
End time (UTC)
End Az.
4 mins2024-12-26 19:08:24.942Z296.514° NW2024-12-26 19:10:24.942Z274.62° WNW13.114°2024-12-26 19:12:24.942Z253.732° W
5 mins2024-12-27 04:58:24.942Z106.552° ESE2024-12-27 05:00:24.942Z82.448° E16.328°2024-12-27 05:03:24.942Z48.901° ENE
9 mins2024-12-27 06:39:24.942Z204.092° SW2024-12-27 06:43:24.942Z270.529° WNW40.914°2024-12-27 06:48:24.942Z358.109° N
9 mins2024-12-27 17:26:24.942Z352.057° N2024-12-27 17:30:24.942Z201.996° SSW44.955°2024-12-27 17:35:24.942Z174.848° S
|